Simultaneous Nadir Overpasses (SNOs) Predictions

Prediction of SNOs over PacNW region [( 10.00, 139.50) to ( 22.70, 165.60)] between NOAA-19 and NPP Satellites:

Table of predicted SNOs over PacNW region for the next 30.0 days since TLE Epoch: 12/20/2013
Index Date (NOAA-19) Time (NOAA-19) NOAA-19 Lat,Lon Date (NPP) Time (NPP) NPP Lat,Lon Distance(km) Time Diff (sec)
1 01/01/2014 03:13:57 17.71, 154.79 01/01/2014 03:15:22 16.66, 150.34 487.07 85
2 01/01/2014 15:50:43 12.91, 150.52 01/01/2014 15:47:56 13.70, 146.98 392.69 167
3 01/13/2014 15:17:18 22.58, 160.65 01/13/2014 15:19:55 23.72, 155.76 515.42 157
4 01/14/2014 02:33:42 22.65, 164.09 01/14/2014 02:32:40 21.85, 160.18 412.07 62
5 01/14/2014 04:14:42 18.93, 139.51 01/14/2014 04:13:07 18.16, 135.72 409.24 95




NCC Satellite Simultaneous Nadir Overpasses (SNOs) Prediction Service
